Huvudsida
METAR-TAF:

METAR-TAF

Flygplatser :

Oljeplattform

Statfjord A, Norge

latitud: 61-15N, longitud: 1-51E, höjd: 10 m

Aktuellt väderrapport

Denna rapport gjordes för 32 minuter sedan, klockan 20:20 UTC
Vind 15 kt från syd/sydost
Temperatur 12°C
Fuktighet 71%
Tryck 1030 hPa
Sikt 10 km eller mer

METAR: ENSF 292020Z AUTO 15015KT 9999NDV NCD 12/07 Q1030 W///S3

Tid: 22:52 (20:52 UTC)


TAF: saknas

Aktuella väderrapporter och prognoser från 4000 flygplatser (METAR- och TAF-rapporter).

De tillgängliga stationerna syns som gula och röda prickar på kartan.

För musen över prickarna för att se namnen på stationerna.

Klicka sedan för att få väderrapporter och prognoser.

För att ändra kartan: Klicka på de gröna knapparna med ett svart kors på för att zooma in; den gröna knappen med ett streck på för att zooma ut; eller på de gröna pilarna för angränsande kartor.


METAR-TAF: